Regional Weather Roundup
Issued by NWS

Home | Current Version | Previous Version | Graphics & Text | Print | Product List | Glossary On
Versions: 1 2 3 4 5 6 7 8 9 10 11 12 13 14 15 16 17 18 19 20 21 22 23 24 25 26 27 28 29 30 31 32 33 34 35 36 37 38 39 40 41 42 43 44 45 46 47 48 49 50
000
ASUS43 KOAX 121802
RWRNE

WEATHER ROUNDUP FOR NEBRASKA
NATIONAL WEATHER SERVICE OMAHA NE
1200 PM CST FRI FEB 12 2016

NOTES: SATELLITE DATA IS BEING USED TO AUGMENT CLOUD COVER ABOVE
       12000 FEET.
       "FAIR" INDICATES FEW OR NO CLOUDS BELOW 12,000 FEET WITH NO
       SIGNIFICANT WEATHER AND/OR OBSTRUCTIONS TO VISIBILITY.

  * THESE STATIONS DO NOT REPORT WEATHER SUCH AS RAIN...SNOW OR FOG.

NEZ001>004-019>022-054>056-121900-
NEBRASKA PANHANDLE

CITY           SKY/WX    TMP DP  RH WIND       PRES   REMARKS
SCOTTSBLUFF    CLOUDY    35  29  78 E14       30.37S WCI  26
6HR MIN TEMP:  28; 6HR MAX TEMP:  37;

ALLIANCE       CLOUDY    31  29  92 NE7       30.37S WCI  24
6HR MIN TEMP:  23; 6HR MAX TEMP:  31;

CHADRON        CLOUDY    36  29  75 E5        30.40S WCI  32
6HR MIN TEMP:  31; 6HR MAX TEMP:  36;

SIDNEY         CLOUDY    34  30  85 E14       30.37R WCI  25
6HR MIN TEMP:  28; 6HR MAX TEMP:  41;

$$

NEZ057>060-069>072-079>082-121900-
SOUTHWEST NEBRASKA

CITY           SKY/WX    TMP DP  RH WIND       PRES   REMARKS
NORTH PLATTE   CLOUDY    36  28  73 N7        30.42R WCI  30
6HR MIN TEMP:  24; 6HR MAX TEMP:  36;

IMPERIAL       CLOUDY    34  31  88 E9        30.41R WCI  27
6HR MIN TEMP:  23; 6HR MAX TEMP:  34;

MCCOOK         CLOUDY    34  30  85 E3        30.44R
6HR MIN TEMP:  24; 6HR MAX TEMP:  34;

$$

NEZ005>010-023>029-035>040-094-121900-
NORTH CENTRAL NEBRASKA

CITY           SKY/WX    TMP DP  RH WIND       PRES   REMARKS
VALENTINE      CLOUDY    25  18  74 NE6       30.47R WCI  18
6HR MIN TEMP:  24; 6HR MAX TEMP:  29;

AINSWORTH      CLOUDY    24  20  83 N9        30.46S WCI  15
BROKEN BOW     CLOUDY    28  25  88 N9        30.45R WCI  19
6HR MIN TEMP:  28; 6HR MAX TEMP:  32;

ORD            CLOUDY    24  21  88 NE10      30.49R WCI  14
6HR MIN TEMP:  22; 6HR MAX TEMP:  29;

$$

NEZ041-046>049-061>064-073>077-083>087-121900-
SOUTH CENTRAL NEBRASKA

CITY           SKY/WX    TMP DP  RH WIND       PRES   REMARKS
GRAND ISLAND   CLOUDY    27  22  81 NE14      30.50R WCI  16
6HR MIN TEMP:  27; 6HR MAX TEMP:  29;

HASTINGS       CLOUDY    32  24  72 NE10      30.46R WCI  24
6HR MIN TEMP:  28; 6HR MAX TEMP:  32;

KEARNEY *      CLOUDY    32  27  80 N13       30.45S WCI  22
$$

NEZ011>018-030>034-042>045-121900-
NORTHEAST NEBRASKA

CITY           SKY/WX    TMP DP  RH WIND       PRES   REMARKS
NORFOLK        CLOUDY    22  14  71 N16       30.51R WCI   8
6HR MIN TEMP:  21; 6HR MAX TEMP:  24;

BLAIR          SUNNY     23  12  62 N21G28    30.49R WCI   8
COLUMBUS *     CLOUDY    25   9  50 NW13      30.52R WCI  13
FREMONT        CLOUDY    24  10  56 N13G22    30.53R WCI  12
TEKAMAH        SUNNY     20  11  68 N20       30.54R WCI   4
6HR MIN TEMP:  20; 6HR MAX TEMP:  22;

$$

NEZ050>053-065>068-078-088>093-121900-
SOUTHEAST NEBRASKA

CITY           SKY/WX    TMP DP  RH WIND       PRES   REMARKS
LINCOLN        CLOUDY    27  17  66 N17       30.52R WCI  14
6HR MIN TEMP:  23; 6HR MAX TEMP:  27;

OMAHA EPPLEY   MOSUNNY   25  12  58 N21G28    30.51R WCI  11
6HR MIN TEMP:  20; 6HR MAX TEMP:  26;

BEATRICE       CLOUDY    28  21  76 N16       30.50R WCI  16
FALLS CITY     PTSUNNY   30  17  58 N14G23    30.49R WCI  19
6HR MIN TEMP:  26; 6HR MAX TEMP:  30;

NEBRASKA CITY  CLOUDY    28  17  65 N13       30.48S WCI  17
$$

NEZ044-045-051>053-067-121900-
OMAHA AREA

CITY           SKY/WX    TMP DP  RH WIND       PRES   REMARKS
OMAHA EPPLEY   MOSUNNY   25  12  58 N21G28    30.51R WCI  11
6HR MIN TEMP:  20; 6HR MAX TEMP:  26;

BLAIR          SUNNY     23  12  62 N21G28    30.49R WCI   8
FREMONT        CLOUDY    24  10  56 N13G22    30.53R WCI  12
OFFUTT AFB     PTSUNNY   26  12  56 N13G23    30.50R WCI  15
WAHOO          CLOUDY    24  15  68 N20       30.52R WCI   9
$$



USA.gov is the U.S. government's official web portal to all federal, state and local government web resources and services.